Tracking 20712 objects as of 27-May-2020
HD Live streaming from Space Station
objects crossing your sky now

ESA/GOES

Track ESA/GOES now!
ESA/GOES is classified as:


NORAD ID: 9931
Int'l Code: 1977-029A
Perigee: 2,723.0 km
Apogee: 38,444.3 km
Inclination: 27.3 °
Period: 734.0 minutes
Semi major axis: 26954 km
RCS: 4.0849 m2 (large)
Launch date: April 20, 1977
Source: European Space Agency (ESA)
Launch site: AIR FORCE EASTERN TEST RANGE (AFETR)
aabbcc
Your satellite tracking list
Your tracking list is empty




NASA's NSSDC Master Catalog

Two Line Element Set (TLE):
1  9931U 77029A   20147.75358398 -.00000189 +00000-0 +00000-0 0  9998
2  9931 027.2796 087.2260 6626186 359.5365 359.9635 01.96178960308438
Source of the keplerian elements: AFSPC